TimeCST,TemperatureF,Dew PointF,Humidity,Sea Level PressureIn,VisibilityMPH,Wind Direction,Wind SpeedMPH,Gust SpeedMPH,PrecipitationIn,Events,Conditions,WindDirDegrees,DateUTC
12:53 AM,27.0,21.0,78,29.97,3.0,Calm,Calm,-,N/A,,Haze,0,2014-02-13 06:53:00
1:53 AM,26.1,19.9,78,29.95,3.0,SE,4.6,-,N/A,,Haze,140,2014-02-13 07:53:00
2:53 AM,28.0,21.9,78,29.93,4.0,SSW,4.6,-,N/A,,Haze,200,2014-02-13 08:53:00
3:53 AM,28.0,23.0,81,29.90,4.0,SSW,4.6,-,N/A,,Haze,210,2014-02-13 09:53:00
4:53 AM,28.9,24.1,82,29.89,5.0,SSW,5.8,-,N/A,,Haze,210,2014-02-13 10:53:00
5:53 AM,30.0,24.1,79,29.89,6.0,SSW,5.8,-,N/A,,Haze,210,2014-02-13 11:53:00
6:53 AM,28.9,23.0,78,29.88,6.0,SSW,3.5,-,N/A,,Haze,200,2014-02-13 12:53:00
7:53 AM,26.1,21.9,84,29.90,4.0,Calm,Calm,-,N/A,,Clear,0,2014-02-13 13:53:00
8:53 AM,33.1,26.1,75,29.89,7.0,SW,9.2,-,N/A,,Clear,220,2014-02-13 14:53:00
9:53 AM,36.0,26.1,67,29.89,9.0,WSW,9.2,-,N/A,,Clear,240,2014-02-13 15:53:00
10:53 AM,39.0,26.1,60,29.88,10.0,WSW,11.5,-,N/A,,Clear,250,2014-02-13 16:53:00
11:53 AM,41.0,27.0,57,29.88,10.0,West,9.2,-,N/A,,Clear,260,2014-02-13 17:53:00
12:53 PM,43.0,27.0,53,29.84,10.0,WSW,8.1,-,N/A,,Clear,240,2014-02-13 18:53:00
1:53 PM,45.0,28.9,53,29.82,10.0,West,8.1,-,N/A,,Clear,280,2014-02-13 19:53:00
2:53 PM,46.9,28.9,50,29.82,10.0,West,6.9,-,N/A,,Clear,260,2014-02-13 20:53:00
3:53 PM,46.9,28.9,50,29.81,10.0,WSW,9.2,-,N/A,,Clear,250,2014-02-13 21:53:00
4:53 PM,46.9,28.9,50,29.81,10.0,West,3.5,-,N/A,,Clear,260,2014-02-13 22:53:00
5:53 PM,46.0,28.9,51,29.81,10.0,SSW,4.6,-,N/A,,Clear,210,2014-02-13 23:53:00
6:53 PM,42.1,28.9,60,29.81,10.0,Calm,Calm,-,N/A,,Clear,0,2014-02-14 00:53:00
7:53 PM,34.0,27.0,75,29.81,10.0,Calm,Calm,-,N/A,,Clear,0,2014-02-14 01:53:00
8:53 PM,30.9,26.1,82,29.81,9.0,Calm,Calm,-,N/A,,Clear,0,2014-02-14 02:53:00
9:53 PM,30.9,26.1,82,29.78,7.0,Calm,Calm,-,N/A,,Clear,0,2014-02-14 03:53:00
10:53 PM,30.9,27.0,85,29.75,7.0,East,3.5,-,N/A,,Mostly Cloudy,80,2014-02-14 04:53:00
11:53 PM,30.0,26.1,85,29.73,6.0,Calm,Calm,-,N/A,,Clear,0,2014-02-14 05:53:00